Regional Weather Roundup
Issued by NWS Wakefield, VA

Home | Current Version | Previous Version | Text Only | Print | Product List | Glossary On
Versions: 1 2 3 4 5 6 7 8 9 10 11 12 13 14 15 16 17 18 19 20 21 22 23 24 25 26 27 28 29 30 31 32 33 34 35 36 37 38 39 40 41 42 43 44 45 46 47 48 49 50
000
ASUS41 KAKQ 271714
RWRAKQ

REGIONAL WEATHER ROUNDUP
NATIONAL WEATHER SERVICE WAKEFIELD VA
100 PM EDT FRI MAR 27 2015

Note: "fair" indicates few or no clouds below 12,000 feet with no
significant weather and/or obstructions to visibility. * = Denotes
station may not report precipitation (e.g., rain,snow,etc.),
thunder or fog.

VAZ042-051-052>054-056-271800-
NORTHERN VIRGINIA

CITY           SKY/WX    TMP DP  RH WIND       PRES   REMARKS
WASH NATIONAL  CLOUDY    47  33  58 N15       29.81F
DULLES         CLOUDY    45  31  58 NW14G20   29.81F
FORT BELVOIR   CLOUDY    44  36  72 NW6       29.81F
QUANTICO       CLOUDY    44  36  73 CALM      29.84F
FREDERICKSBRG* LGT RAIN  42  37  83 NE3       29.82F
STAFFORD*      LGT RAIN  40  40 100 CALM      29.87S
WARRENTON      CLOUDY    45  38  76 N6        29.81S
CULPEPER*      CLOUDY    46  34  61 N10       29.82F
MANASSAS*      MOSUNNY   45  36  70 N9        29.82
LEESBURG*      CLOUDY    45  32  61 N12G18    29.82F
WINCHESTER     CLOUDY    45  27  49 N7        29.80F
FRONT ROYAL*   CLOUDY    43  32  65 N6        29.80S
LURAY*         CLOUDY    45  36  70 NE3       29.79F
$$

VAZ048-049-060>072-079>083-271800-
CENTRAL AND SOUTH CENTRAL VIRGINIA

CITY           SKY/WX    TMP DP  RH WIND       PRES   REMARKS
RICHMOND       RAIN      41  37  86 N13       29.83S
CHESTERFIELD*  PTSUNNY   39  27  60 N12G20    29.84S
PETERSBURG*    LGT RAIN  42  40  90 N8        29.83F
HANOVER        LGT RAIN  39  36  89 N7        29.84F FOG
TAPPAHANNOCK*  LGT RAIN  40  36  84 NW6       29.84R
QUINTON*       CLOUDY    39  37  93 N6        29.83R
CHARLOTTSVILLE CLOUDY    44  39  82 E8        29.81F
GORDONSVILLE*  CLOUDY    41  37  84 NE5       29.82S
ORANGE*        CLOUDY    43  36  75 NE5       29.83F
LOUISA*        DRIZZLE   41  37  87 NE8       29.81F
BUMPASS*       CLOUDY    38  36  92 NE7       29.82F
FARMVILLE*     LGT RAIN  42  42 100 NE7       29.82S
CREWE*         CLOUDY    39  36  90 MISG      29.80F
FORT PICKETT*  CLOUDY    40  38  93 N13G18    29.80F
CHASE CITY*    CLOUDY    44  44 100 N6        29.80S
CLARKSVILLE*   CLOUDY    43  41  93 N12       29.79S
SOUTH HILL*    CLOUDY    42  40  92 N8        29.86R
LAWRENCEVILLE* CLOUDY    41  39  93 N7        29.80F
EMPORIA*       LGT RAIN  43  41  93 N10G16    29.81F
$$

VAZ088>098-271800-
SOUTHEAST VIRGINIA

CITY           SKY/WX    TMP DP  RH WIND       PRES   REMARKS
NORFOLK        LGT RAIN  43  39  86 N18G24    29.79R FOG
VIRGINIA BEACH DRIZZLE   45  41  86 N18G30    29.76R FOG
NORFOLK NAVAL  NOT AVBL
WEST POINT*    CLOUDY    44  39  85 N10G16    29.83R
SALUDA*        CLOUDY    41  38  89 N10G17    29.81S
NEWPORT NEWS   LGT RAIN  46  40  79 N12       29.82R
LANGLEY AFB    RAIN      43  41  93 N12G17    29.79R VSB 1
FORT EUSTIS    LGT RAIN  43  42  99 NE13G20   29.79R FOG
WILLIAMSBURG*  CLOUDY    45  43  93 NE3G17    29.82R
HR EXEC AP*    CLOUDY    45  39  81 N10G18    29.81R
FRANKLIN*      RAIN      43  42  95 N7        29.80S
WAKEFIELD      RAIN      42  38  85 N10G20    29.80S FOG
$$

VAZ020-022-025-037-045-271800-
WEST CENTRAL AND SOUTHWEST VIRGINIA

CITY           SKY/WX    TMP DP  RH WIND       PRES   REMARKS
STAUNTON*      CLOUDY    44  33  65 N5        29.80F
WAYNESBORO*    CLOUDY    39  34  81 NE6       29.79S
HOT SPRINGS VA CLOUDY    32  28  85 NW9G17    29.71S
LYNCHBURG      LGT RAIN  43  39  86 VRB5      29.80F
DANVILLE       LGT RAIN  46  41  82 NE10      29.81R
SOUTH BOSTON*  CLOUDY    43  40  89 NE7       29.80F
MARTINSVILLE   CLOUDY    44  41  90 N9        29.83S
ROANOKE        CLOUDY    44  33  65 NW12      29.82F
BLACKSBURG     CLOUDY    37  30  75 NW9G18    29.82S
DUBLIN*        CLOUDY    39  32  75 NW8       29.82R
MARION*        CLOUDY    38  27  64 NW14      29.82F
HILLSVILLE*    CLOUDY    36  32  84 N13       29.78R
RICHLANDS*     CLOUDY    34  26  71 NW9       29.83F
WISE*          CLOUDY    36  28  75 N7G17     29.86F
ABINGDON*      CLOUDY    41  29  62 N6G18     29.84F
$$

MDZ021>025-VAZ099-100-271800-
SOUTHERN MARYLAND AND THE DELMARVA PENINSULA

CITY           SKY/WX    TMP DP  RH WIND       PRES   REMARKS
PATUXENT RIVER LGT RAIN  40  36  86 N16G23    29.81F FOG
BAY BRIDGE APT   N/A     43  36  75 N3        29.79F
LEONARDTOWN    CLOUDY    37  36  93 N3        29.82F
DOVER          LGT RAIN  39  39 100 N7        29.79S
GEORGETOWN     LGT RAIN  40  37  89 NW9       29.78F FOG
EASTON         LGT RAIN  41  39  93 N10       29.83S
CAMBRIDGE      CLOUDY    41  36  81 N10G16    29.79S
SALISBURY      LGT RAIN  41  38  89 N10       29.78R FOG
OCEAN CITY     CLOUDY    42  34  73 N14G25    29.76F
WALLOPS ISLAND CLOUDY    43  34  70 N15G23    29.77R
ACCOMACK*      RAIN      43  36  75 N12G20    29.77R
$$

NCZ012>017-030>032-271800-
NORTH CENTRAL AND EASTERN NORTH CAROLINA

CITY           SKY/WX    TMP DP  RH WIND       PRES   REMARKS
ROANOKE RAPIDS CLOUDY    45  43  93 N12       29.78F
RALEIGH        CLOUDY    46  43  89 NE8       29.77F
ELIZABETH CITY LGT RAIN  46  45  93 N17       29.75R FOG
AHOSKIE*       LGT RAIN  44  42  93 N13G21    29.78F
EDENTON*       CLOUDY    45  43  93 N12G20    29.76R FOG
CURRITUCK*     CLOUDY    45  43  91 N13G26    29.76R
KILL DEVIL HLS CLOUDY    43  41  93 N13G22    29.72R
MANTEO         CLOUDY    43  41  93 N22G29    29.73R
CAPE HATTERAS  CLOUDY    47  44  90 N12G23    29.71R
TARBORO*       LGT RAIN  46  44  93 N9G17     29.78F
GOLDSBORO      CLOUDY    48  47  99 N12       29.73R
WASHINGTON     DRIZZLE   47  44  91 N15       29.77R
GREENVILLE     RAIN      48  46  93 NE13G21   29.77S
NEW BERN       CLOUDY    50  46  86 NE14      29.71S
WILMINGTON     LGT RAIN  70  62  76 SW9       29.64F
$$

VAZ048-271800-
ELSEWHERE

CITY           SKY/WX    TMP DP  RH WIND       PRES   REMARKS
HARRISBURG PA  CLOUDY    44  26  49 NW13      29.80R
BALTIMORE      CLOUDY    45  33  63 NW7       29.78F
ANNAPOLIS      LGT RAIN  43  36  76 NE3       29.79F
ANDREWS AFB    LGT RAIN  43  36  75 N8        29.79R
PHILADELPHIA   CLOUDY    45  32  60 N14       29.78R
HENDERSON NC   LGT RAIN  44  42  92 N10G18    29.78F
GREENSBORO     LGT RAIN  44  40  85 N9        29.78R
ROCKY MOUNT    CLOUDY    47  44  90 N13       29.79R
$$

VAZ100-271800-
MARINE

STATION/POSITION TIME  TEMP    WIND        PRES    WAVE   SWELL
                       AIR SEA DIR/SP/G            HT/PER HT/PER
                 (UTC) (F)     (DEG/KT/KT) (MB)    (FT/S) (FT/S)
BRANDYWINE LGT   1612          360/ 15/ 17 1008.4R
CAPE MAY NJ      1600   41 44  340/  9/ 14 1007.5F
LEWES DE         1600   41 43  350/ 13/ 16 1008.4R
15NM E FENWICK I 1650   40 40              1006.8F   6/11
OCEAN-CITY-INLET 1612   43 41   10/ 16/ 20 1007.3F
WACHAPREAGUE VA  1600   44 51   10/  6/ 12 1007.1F
THOMAS POINT MD  1700                        N/A
COVE POINT MD    1600   40     350/ 19/ 20 1009.2R
SOLOMONS ISLAND  1600      44                N/A
BISHOPS HEAD MD  1600   42 48   10/  8/ 13 1008.0F
PINEY POINT MD   1606           10/ 12/ 14   N/A
CAMBRIDGE MD     1600   42 45   10/ 13/ 15 1009.0R
LEWISETTA VA     1600   42 46              1009.6R
RAPPAHANNOCK LGT 1600           10/ 22/ 25 1008.1F
STINGRAY PT      1700   42 44  360/ 17/ 23   N/A     2/ 3
YORK RVR RNG VA  1600   44      10/ 21/ 24 1007.7R
YORKTOWN VA      1600   43 48  360/ 13/ 17 1008.7R
DOMINION TERM VA 1600   44      10/ 15/ 20 1008.2R
KIPTOPEKE VA     1600      50   20/ 14/ 18   N/A
CHES BAY BRIDGE  1606   42 44  350/ 20/ 24 1007.1F
CAPE HENRY VA    1600   43     340/ 19/ 21 1006.4R
CHESAPEAKE LGHT  1600   41      20/ 15/ 17 1007.6F
WILLOUBY STN VA  1600   43      10/ 20/ 23 1008.4S
S CRANEY ISL VA  1600           10/ 20/ 25 1007.6F
CAPE HENRY BUOY  1628      42                N/A     4/10   2/11
1ST LANDING BUOY 1700   42     350/ 23/ 27 1008.3R   3/ 3
OFFSHORE WE BUOY 1611      41                N/A     6/10   5/10
64NM E OF VA BCH 1650   47 52  360/ 23/ 27 1004.3F   9/ 7   2/11
DUCK PIER NC     1600   42 41   10/ 18/ 21 1005.5F
44056 DUCK FRF   1611      42                N/A     5/ 5   2/11
OREGON INLET NC  1600   43 58  360/ 18/ 25 1005.4F
HATTERAS NC      1606   49 60   30/ 20/ 26 1005.7F
CAPE LOOKOUT NC  1700   54      40/ 20/ 23 1004.6R
$$



USA.gov is the U.S. government's official web portal to all federal, state and local government web resources and services.